Location: Mauna Kea VIS
(19.7591°N, 155.4561°W)
Time: 16:53:44
(UTC-10:00)

Daily predictions for brighter satellites

Satellite Brightness Start Highest point End
(mag) Time Altitude Azimuth Time Altitude Azimuth Time Altitude Azimuth
Cosmos 1937 Rocket 3.4 19:12:47 10° S 19:17:52 69° ESE 19:22:57 10° NNE
Aurora 2 Rocket 3.6 19:11:09 10° WNW 19:18:24 64° N 19:23:20 10° E
Delta 7925 Rocket 3.2 19:16:14 10° WSW 19:20:50 85° SSE 19:25:45 10° ENE
Cosmos 1869 3.3 19:17:20 10° N 19:21:17 67° E 19:25:15 10° SSE
Sich 1 4.1 19:17:57 10° SSW 19:22:07 50° W 19:26:19 10° N
Cosmos 1707 Rocket 3.5 19:18:03 10° N 19:22:24 69° E 19:26:41 10° SSE
Lacrosse 5 rocket 2.0 19:19:12 10° SW 19:22:44 52° NW 19:26:12 10° NNE
Cosmos 1455 3.8 19:20:37 10° NNW 19:24:05 37° W 19:27:34 10° SSW
Milstar 3 4.3 19:06:15 10° WSW 19:25:57 88° SSE 19:35:34 10° ENE
FengYun 1-2 T 4.4 19:21:47 10° SSE 19:27:08 55° ENE 19:32:33 10° N
Tsikada Rocket 4.1 19:26:35 10° SSE 19:32:39 54° E 19:38:38 10° NNE
COSMOS 2455 2.8 19:26:45 10° SSW 19:32:42 74° ESE 19:38:40 10° NNE
ISS -0.1 19:32:03 10° NW 19:32:43 10° NW 19:33:22 10° NNW
Cosmos 2344 4.3 19:26:47 10° SSE 19:33:31 28° ESE 19:39:49 10° NE
Molniya-1 3.9 19:31:18 10° SW 19:34:07 52° WNW 19:36:08 10° NNE
Cosmos 192 4.3 19:30:20 10° N 19:35:17 71° ENE 19:40:11 10° SSE
Cosmos 2150 Rocket 4.3 19:30:22 10° SSW 19:35:46 79° WNW 19:41:08 10° N
Cosmos 1933 Rocket 3.5 19:31:48 10° S 19:36:04 65° E 19:40:21 10° NNE
ATLAS 2A CENTAUR R/B 4.4 19:32:01 10° WSW 19:36:06 22° S 19:45:12 10° SE
ALOS 3.1 19:37:58 10° S 19:42:30 52° W 19:47:02 10° NNW
Delta 168 3.9 19:41:25 10° WNW 19:44:20 32° N 19:47:52 10° ENE
Cosmos 2242 Rocket 3.7 19:40:50 10° N 19:45:08 51° E 19:49:23 10° SSE
Meteor 2-10 Rocket 4.1 19:39:41 10° N 19:45:13 46° E 19:50:38 10° SSE
Cosmos 1933 4.0 19:41:42 10° NNE 19:45:23 35° E 19:48:51 11° SSE
Hubble Space Telescope 0.8 19:45:31 10° WNW 19:49:38 71° NNE 19:52:40 18° ESE
Resurs 01 Rocket 1.9 19:47:23 10° SSE 19:51:35 46° ENE 19:55:48 10° N
Cosmos 1862 Rocket 4.1 19:47:36 10° NNE 19:51:46 38° E 19:55:19 13° SSE
Spot 2 Rocket 4.0 19:47:23 10° SE 19:52:07 42° ENE 19:56:53 10° N
Cosmos 2034 Rocket 4.0 19:46:32 10° N 19:52:37 63° E 19:58:40 10° SSE
H-2A R/B 3.1 19:49:10 10° S 19:53:04 70° W 19:56:59 10° NNW
Cosmos 1464 Rocket 4.2 19:51:49 10° N 19:58:11 79° W 20:04:32 10° S
SWIFT 3.8 19:55:40 10° SSW 19:58:43 19° SSE 19:59:32 18° SE
Ariane H10+ 3.5 20:03:34 10° WSW 20:10:21 20° SSW 20:12:34 16° SSE
Meteor 2-3 Rocket 3.8 20:06:13 10° S 20:11:58 86° W 20:17:40 10° N
Cosmos 1892 3.1 20:09:48 10° SSW 20:13:37 63° W 20:17:25 10° N
Cosmos 2082 Rocket 3.0 20:12:09 10° NNW 20:17:37 50° WSW 20:23:04 10° S
Mugunghwa Rocket 4.5 20:11:17 10° W 20:18:16 72° NNW 20:26:04 10° ENE
OAO 2 Rocket 4.2 20:13:33 10° NW 20:18:16 38° NNE 20:20:38 24° ENE
Cosmos 372 Rocket 4.1 20:13:29 10° S 20:18:27 50° ESE 20:23:23 10° NNE
Envisat 3.1 20:16:24 25° SE 20:19:09 55° ENE 20:24:05 10° N
Resurs 1-3 3.6 20:15:51 16° S 20:19:20 83° WSW 20:23:42 10° NNW
CZ-2D R/B 3.9 20:17:23 12° S 20:20:49 56° W 20:24:38 10° NNW
Cosmos 2346 Rocket 4.4 20:15:10 10° S 20:21:12 84° W 20:27:15 10° N
H-2A ROCKET BODY 3.0 20:19:55 10° NW 20:22:15 25° NNE 20:25:26 15° ENE
Cosmos 1833 Rocket 3.7 20:18:37 10° NNW 20:23:55 45° WSW 20:29:13 10° S
Meteor 1-26 Rocket 4.2 20:22:00 10° N 20:27:42 75° E 20:31:17 24° SSE
Cosmos 1703 Rocket 4.2 20:25:06 10° NNE 20:28:48 35° ENE 20:28:48 35° ENE
Cosmos 1943 Rocket 2.1 20:26:40 10° SSW 20:32:17 86° WNW 20:37:53 10° NNE
CENTAUR R/B 3.3 20:28:01 10° SW 20:33:28 49° WNW 20:39:30 10° NNE
Cosmos 1125 Rocket 3.5 20:29:17 10° SSW 20:34:32 83° WNW 20:39:46 10° NNE
Cosmos 1869 Rocket 3.4 20:33:56 29° S 20:36:07 90° NNE 20:40:26 10° N
Timation 2 Rocket 4.2 20:30:06 10° NNW 20:36:36 76° WSW 20:40:56 24° S
Helios 1B rocket 2.5 20:33:31 10° N 20:37:35 76° WNW 20:40:10 22° SSW
SL-19 R/B 4.4 20:36:47 41° SE 20:38:38 60° ENE 20:44:25 10° N
YAOGAN 6 3.8 20:43:58 33° NNE 20:43:58 33° NNE 20:46:19 10° N
GPS 2-15 Rocket1 3.4 20:39:02 10° W 20:43:30 48° SSW 20:43:37 47° S
USA 186 3.8 20:46:50 20° W 20:46:50 20° W 20:48:39 10° NW
SJ-11-01 4.2 20:50:47 67° S 20:51:26 89° WSW 20:56:09 10° NNW
GPS 2-17 Rocket1 2.9 20:47:30 10° W 20:51:41 73° WSW 20:51:41 73° WSW
Meteor 1-29 4.4 20:57:34 10° N 21:00:36 37° WNW 21:00:36 37° WNW
Helios 1A 3.5 21:05:28 55° NW 21:05:28 55° NW 21:08:49 10° NNW
FUSE 4.5 21:01:07 10° WNW 21:06:14 49° N 21:06:50 47° NNE
Cosmos 2221 Rocket 4.4 21:04:47 10° N 21:07:51 44° N 21:07:51 44° N
Cosmos 1346 Rocket 4.3 21:05:55 10° NNW 21:09:30 32° W 21:09:43 32° W
Cosmos 1408 4.4 21:11:26 30° NW 21:11:26 30° NW 21:13:44 10° NNW
H-2A R/B 4.2 21:12:59 16° NE 21:12:59 16° NE 21:14:25 10° NNE
Cosmos 1939 Rocket 4.1 21:11:32 38° W 21:11:32 38° W 21:15:17 10° NNW
Aurora 2 Rocket 3.6 21:06:45 10° W 21:10:53 41° WSW 21:10:53 41° WSW
Delta 7925 Rocket 4.2 21:11:30 10° W 21:16:06 45° N 21:16:37 43° NNE
ERS-1 Rocket 3.8 21:23:39 43° N 21:23:39 43° N 21:27:00 10° N
Cosmos 1656 Rocket 4.1 21:29:14 56° NNW 21:29:14 56° NNW 21:33:52 10° N
ATLAS 5 CENTAUR R/B 3.8 21:23:26 10° N 21:27:32 29° NE 21:27:32 29° NE
Hubble Space Telescope 3.5 21:27:17 10° W 21:28:02 14° WSW 21:28:02 14° WSW
ARGOS 4.4 21:33:26 33° NNE 21:33:26 33° NNE 21:36:24 10° N
Delta 2 Rocket 4.2 21:30:04 10° WNW 21:36:41 79° N 21:36:41 79° N
Nadezhda 4 Rocket 4.5 21:43:48 55° NNW 21:43:48 55° NNW 21:48:31 10° N
Milstar 3 3.8 22:01:02 10° W 22:11:29 49° N 22:12:41 46° NNE
